Location: Maiden
(35.5760°N, 81.2120°W)
Time: 02:43:13
(UTC-04:00)

A-11 Canister half - Pass Details

Date: 05 August 2020
Orbit: 1527 x 1682 km, 47.3° (Epoch: 25 September)

Event Time Altitude Azimuth Distance (km) Brightness Sun altitude
Rises 20:46:15 0° 304° (WNW) 4,902 14.0 -4.9°
Reaches altitude 10° 20:49:26 10° 303° (WNW) 3,897 12.9 -5.5°
Maximum altitude 20:59:24 82° 219° (SW) 1,629 9.2 -7.3°
Drops below altitude 10° 21:09:00 10° 132° (SE) 3,762 10.4 -9.1°
Enters shadow 21:09:15 - 132° (SE) 3,843 10.5 -9.1°
Sets 21:12:01 0° 132° (SE) 4,726 - -9.6°
